Regional Weather Roundup
Issued by NWS

Home | Current Version | Previous Version | Text Only | Print | Product List | Glossary Off
Versions: 1 2 3 4 5 6 7 8 9 10 11 12 13 14 15 16 17 18 19 20 21 22 23 24 25 26 27 28 29 30 31 32 33 34 35 36 37 38 39 40 41 42 43 44 45 46 47 48 49 50

000
ASUS43 KFSD 232002
RWRSD

WEATHER ROUNDUP FOR SOUTH DAKOTA
NATIONAL WEATHER SERVICE SIOUX FALLS SD
300 PM CDT SUN JUL 23 2017

NOTE: "FAIR" INDICATES FEW OR NO CLOUDS BELOW 12,000 FEET WITH NO
SIGNIFICANT WEATHER AND/OR OBSTRUCTIONS TO VISIBILITY.


SDZ001>005-009-010-012>017-232100-
NORTHWEST AND NORTH CENTRAL SOUTH DAKOTA

CITY           SKY/WX    TMP DP  RH WIND       PRES   REMARKS
BUFFALO          N/A     89  46  22 SE7       29.97F
FAITH            N/A     87  47  24 VRB5      30.04F
MOBRIDGE       SUNNY     82  58  43 VRB6      30.02S
$$

SDZ012>016-024>037-041>051-057-063-072>074-232100-
SOUTHWEST AND SOUTH CENTRAL SOUTH DAKOTA

CITY           SKY/WX    TMP DP  RH WIND       PRES   REMARKS
RAPID CTY ARPT SUNNY     89  46  22 SE14G20   30.06F
PIERRE         SUNNY     86  49  27 MISG      30.01F
CUSTER         SUNNY     81  42  25 E13G24    30.21F
ELLSWORTH AFB  SUNNY     90  47  22 S10G18    30.06F
PHILIP         SUNNY     90  49  24 SE10      30.02F
PINE RIDGE     SUNNY     90  55  30 E8        30.07F
SPEARFISH      FAIR      88  46  23 E16       30.08F
WINNER         FAIR      91  50  24 NE10G17   30.03F
$$

SDZ004>011-016>023-039-040-232100-
NORTHEAST SOUTH DAKOTA

CITY           SKY/WX    TMP DP  RH WIND       PRES   REMARKS
ABERDEEN       MOSUNNY   80  58  46 N10       30.02F
WATERTOWN      PTSUNNY   74  60  61 NW10G18   30.02S
BROOKINGS      MOSUNNY   75  60  59 NW12      30.02S
SISSETON         N/A     75  62  64 N12       30.02R
$$

SDZ017-020-022-023-036>040-048>070-232100-
SOUTHEAST SOUTH DAKOTA

CITY           SKY/WX    TMP DP  RH WIND       PRES   REMARKS
SIOUX FALLS    MOSUNNY   80  61  52 N14G21    30.00F
HURON          MOSUNNY   79  60  52 N9        30.01F
CHAMBERLAIN    SUNNY     88  53  29 N7        30.02S
MITCHELL       SUNNY     81  59  47 N12       30.02F
YANKTON        SUNNY     82  59  45 N12G18    30.00F
$$

ABBREVIATIONS USED IN REMARKS
   TC - TEMPERATURE IN CELSIUS
  WCI - WIND CHILL INDEX
   HX - HEAT INDEX
  VSB - VISIBILITY





USA.gov is the U.S. government's official web portal to all federal, state and local government web resources and services.